Lid_Strength_Index
3 3 3 4 4 5 5 5 4 4 4 4 3 3 3 4 5 6 5 3 5 8 7 6 6 8 8 8 10 7 8 7 8 11 12 13 13 12 13 11 12 13 14 14 14 16 18 6 7 12 9 8 8 6
3 4 4 4 5 5 5 5 4 4 4 4 3 3 3 4 4 4 5 2 2 5 6 4 5 5 4 5 6 6 7 8 8 10 10 10 12 12 12 15 9 13 11 13 12 13 8 7 7 6 6 7 7 6
3 3 4 4 5 5 5 5 4 4 4 4 4 3 3 3 4 5 5 4 3 6 6 6 6 4 3 3 3 7 7 5 8 7 8 9 12 10 13 12 11 9 7 10 10 8 7 6 6 6 6 6 5 5
3 3 4 4 5 5 5 5 4 4 4 4 4 4 3 4 4 4 4 4 4 5 8 7 3 5 3 3 3 4 4 4 6 5 8 9 11 8 11 9 10 9 8 10 10 8 7 6 5 5 6 6 5 5
3 3 4 4 4 5 5 5 5 4 4 4 4 4 4 4 4 5 4 6 5 5 8 8 5 4 4 3 3 4 4 5 7 7 8 10 8 8 8 8 10 8 9 11 11 7 8 7 5 5 7 6 6 5
3 3 4 4 4 5 5 4 4 4 4 4 4 4 4 4 4 3 5 4 5 5 5 9 6 5 5 4 4 6 6 6 6 7 8 7 6 8 11 12 7 6 6 6 7 5 6 5 5 5 7 7 5 5
3 3 4 4 4 5 4 4 4 4 4 4 5 4 4 4 5 6 6 6 6 5 6 8 8 5 4 5 6 7 7 7 6 7 7 7 7 6 9 12 7 6 5 5 4 4 6 4 5 5 6 6 5 5
3 4 4 4 5 4 4 4 4 4 5 5 5 5 4 4 4 7 4 4 5 4 5 8 8 7 5 6 7 6 7 8 8 8 7 8 7 8 11 7 6 5 5 4 4 4 5 4 4 4 5 5 5 5
4 5 5 5 4 4 4 4 4 5 5 5 5 4 4 5 6 6 2 3 4 4 7 8 9 11 6 7 8 7 7 10 8 9 8 7 9 11 9 7 6 5 6 5 4 4 4 4 4 4 4 4 5 5
5 6 6 5 4 4 4 4 4 5 5 4 4 5 8 7 2 1 4 7 7 6 6 8 7 9 7 8 8 8 8 9 10 9 6 9 10 6 5 4 5 5 4 4 6 6 5 5 5 4 4 4 4 4
6 6 6 5 5 5 4 4 5 5 4 5 6 7 5 2 4 5 8 8 7 9 7 8 8 9 7 9 9 9 10 9 11 10 10 10 11 7 4 4 4 4 4 4 4 4 4 4 4 4 4 3 3 3
6 6 6 5 5 5 5 5 5 6 7 6 7 5 4 5 8 8 9 8 8 9 8 8 8 7 8 7 8 8 10 8 12 7 10 12 8 5 5 4 4 4 4 4 4 4 4 3 3 3 3 3 3 3
6 6 6 6 5 5 5 5 5 5 4 4 4 5 8 7 10 10 11 10 10 7 7 7 7 8 7 7 8 8 9 10 7 11 12 10 6 5 5 4 4 4 4 4 4 4 4 3 3 3 3 3 3 3
6 6 6 6 5 5 5 5 5 4 3 5 7 11 8 9 9 9 9 9 7 7 7 7 7 8 7 8 9 10 9 8 12 14 13 8 6 5 4 4 5 6 5 5 5 4 4 3 3 3 3 3 3 3
6 6 6 6 5 5 5 5 4 3 3 6 6 10 8 7 7 7 7 8 7 6 7 7 8 8 9 9 9 9 10 13 12 13 10 7 5 5 5 5 5 5 5 4 4 4 4 4 4 4 3 3 3 2
6 6 6 5 5 5 5 4 2 2 4 5 6 8 7 8 8 8 8 8 7 7 7 7 9 9 9 10 9 11 12 13 11 8 6 5 6 5 6 5 4 4 3 4 4 4 3 3 4 4 3 3 3 3
7 7 6 5 5 5 4 4 3 6 6 5 7 6 7 8 9 8 8 8 7 7 9 8 9 10 9 10 11 9 11 9 7 6 5 5 5 5 4 5 4 4 4 5 5 4 3 2 3 4 4 4 3 3
7 6 4 5 5 4 3 5 5 5 6 5 7 7 7 7 7 8 8 7 8 8 8 9 8 9 11 11 11 8 7 6 5 5 5 4 4 4 4 4 4 4 4 4 4 3 3 4 4 4 4 4 4 3
7 7 5 5 5 6 6 6 5 8 7 7 7 7 7 7 7 6 6 6 6 6 8 8 8 10 9 8 8 7 6 6 6 6 5 4 4 3 3 4 3 4 4 4 4 4 4 3 3 4 4 4 4 4
5 5 4 4 4 5 7 8 5 6 8 7 6 6 6 7 7 6 6 7 7 7 8 8 8 8 8 7 6 6 6 6 7 7 6 6 4 3 3 3 3 4 4 4 3 5 5 4 3 3 3 4 4 4
5 5 4 4 4 5 6 6 7 7 7 7 7 6 7 7 7 7 7 7 8 8 8 7 7 6 6 6 5 6 6 5 5 6 6 6 5 4 4 3 4 4 4 5 5 4 4 4 3 2 3 3 3 3
5 4 5 4 6 6 6 6 7 6 6 7 7 7 7 7 7 7 7 8 8 8 7 6 6 6 5 5 5 4 4 4 4 4 5 5 5 5 5 4 4 4 4 4 4 4 3 3 3 2 2 2 3 3
4 4 5 6 7 10 9 6 7 7 8 8 7 8 8 8 7 6 9 8 7 6 5 6 5 5 5 4 4 4 3 4 5 5 4 4 4 4 4 4 4 4 4 3 3 3 3 4 3 3 3 3 3 4
4 5 7 7 9 10 6 8 7 7 7 8 8 9 8 8 7 8 9 8 7 6 6 6 5 5 5 5 5 5 4 4 5 5 4 4 5 5 4 4 4 5 4 4 4 4 3 3 4 3 4 4 3 3
11 11 9 16 8 8 8 9 9 9 10 9 9 9 9 8 10 9 9 8 6 7 6 6 6 6 6 5 5 4 3 4 5 5 4 5 5 5 5 4 5 6 5 6 6 5 6 5 6 6 5 5 6 5
15 9 11 9 9 10 10 10 10 10 9 9 9 8 8 9 10 10 8 6 6 6 6 6 6 6 6 5 5 5 5 4 4 5 4 5 5 5 6 7 7 7 6 6 7 7 6 6 6 6 6 6 7 6
14 11 10 8 8 8 9 8 8 9 9 9 9 9 9 10 10 7 6 5 5 5 4 4 4 5 5 5 4 4 3 3 4 4 4 4 5 5 6 8 8 8 7 6 7 7 6 6 6 6 6 5 5 5
8 9 10 9 9 8 9 9 9 9 9 8 8 9 9 8 9 6 5 4 4 3 4 3 3 3 4 3 3 4 4 3 3 3 4 4 5 6 6 6 7 9 7 7 7 7 6 6 5 5 5 6 5 5
9 8 8 9 9 8 8 8 8 8 6 7 8 8 8 5 4 5 4 3 3 3 4 4 4 4 4 3 3 4 3 4 5 6 7 7 7 6 6 7 7 7 7 7 9 9 7 7 6 6 5 5 5 5
9 8 8 8 8 9 8 6 6 5 5 5 5 5 5 5 4 3 3 4 4 4 3 3 4 4 4 5 5 5 4 4 4 5 7 7 7 7 7 7 7 8 8 8 8 7 10 8 8 6 6 5 5 5
7 7 7 7 8 7 6 5 4 4 4 5 5 6 6 5 4 3 3 4 3 3 4 4 4 4 4 5 5 6 6 4 4 4 5 6 7 7 8 7 8 8 8 8 8 8 8 8 7 7 7 7 6 6
7 7 7 7 7 5 4 5 6 6 6 6 7 5 6 6 6 5 3 3 3 4 5 5 4 5 4 4 4 5 7 5 5 5 5 6 7 7 7 8 8 8 8 9 9 9 9 9 8 8 7 7 7 6
6 6 6 6 7 7 5 6 6 6 6 7 6 5 5 5 6 4 2 2 2 3 4 4 4 4 4 4 4 5 6 4 6 9 9 9 9 9 8 9 9 8 9 9 9 9 9 9 9 9 8 8 8 7